EWG9734 LJLJ-BKPR

Flight info

Callsign EWG9734
Flight time 1h 5m
Altitude 35000
Route MODRO1Z MODRO DCT NEMEK DCT NILKU DCT MEDUX MEDUX1D
Aircraft A320/M-SDE3FGHIRWY/LB1

Departure

Time 2026-04-16 22:39
Airport Ljubljana Jože Pučnik Airport (LJLJ)

Arrival

Time 2026-04-16 23:44
Airport Priština Adem Jashari International Airport (BKPR)
Time Latitude Longitude Altitude Speed Heading
2026-04-16 22:14 46.23003 14.45467 1258 ft 0 kts 37°
2026-04-16 22:27 46.23000 14.45463 1258 ft 3 kts 37°
2026-04-16 22:27 46.22979 14.45438 1263 ft 4 kts 47°
2026-04-16 22:27 46.22965 14.45408 1266 ft 4 kts 81°
2026-04-16 22:28 46.22966 14.45385 1258 ft 0 kts 125°
2026-04-16 22:31 46.22962 14.45392 1258 ft 5 kts 126°
2026-04-16 22:31 46.22928 14.45403 1258 ft 5 kts 205°
2026-04-16 22:31 46.22903 14.45378 1262 ft 4 kts 215°
2026-04-16 22:31 46.22887 14.45361 1260 ft 2 kts 215°
2026-04-16 22:32 46.22858 14.45331 1258 ft 8 kts 213°
2026-04-16 22:32 46.22816 14.45349 1258 ft 7 kts 129°
2026-04-16 22:32 46.22783 14.45413 1260 ft 14 kts 128°
2026-04-16 22:32 46.22702 14.45574 1257 ft 23 kts 125°
2026-04-16 22:33 46.22609 14.45757 1252 ft 22 kts 127°
2026-04-16 22:33 46.22512 14.45945 1255 ft 25 kts 127°
2026-04-16 22:33 46.22404 14.46154 1243 ft 28 kts 126°
2026-04-16 22:33 46.22285 14.46387 1231 ft 29 kts 127°
2026-04-16 22:34 46.22155 14.46637 1222 ft 33 kts 127°
2026-04-16 22:34 46.22014 14.46909 1216 ft 34 kts 127°
2026-04-16 22:34 46.21884 14.47167 1212 ft 24 kts 124°
2026-04-16 22:34 46.21781 14.47368 1208 ft 21 kts 126°
2026-04-16 22:35 46.21687 14.47554 1199 ft 26 kts 128°
2026-04-16 22:35 46.21619 14.47597 1197 ft 0 kts 213°
2026-04-16 22:37 46.21612 14.47589 1197 ft 8 kts 214°
2026-04-16 22:37 46.21537 14.47508 1197 ft 13 kts 220°
2026-04-16 22:37 46.21525 14.47413 1199 ft 7 kts 288°
2026-04-16 22:38 46.21547 14.47364 1201 ft 7 kts 306°
2026-04-16 22:38 46.21700 14.47068 1213 ft 73 kts 307°
2026-04-16 22:38 46.22127 14.46229 1244 ft 133 kts 306°
2026-04-16 22:38 46.22771 14.44953 1296 ft 176 kts 306°
2026-04-16 22:39 46.23466 14.43533 2007 ft 170 kts 302°
2026-04-16 22:39 46.23717 14.41905 2659 ft 176 kts 257°
2026-04-16 22:39 46.23010 14.40378 2942 ft 198 kts 211°
2026-04-16 22:39 46.21641 14.39792 3250 ft 216 kts 188°
2026-04-16 22:40 46.20122 14.39480 3835 ft 223 kts 186°
2026-04-16 22:40 46.18577 14.39196 4653 ft 224 kts 186°
2026-04-16 22:40 46.17022 14.38913 5413 ft 226 kts 186°
2026-04-16 22:40 46.15472 14.38625 6150 ft 229 kts 186°
2026-04-16 22:41 46.13882 14.38321 6867 ft 232 kts 187°
2026-04-16 22:41 46.12268 14.38008 7562 ft 235 kts 187°
2026-04-16 22:41 46.10633 14.37684 8253 ft 239 kts 188°
2026-04-16 22:41 46.08971 14.37351 8962 ft 242 kts 188°
2026-04-16 22:42 46.07284 14.37320 9674 ft 245 kts 169°
2026-04-16 22:42 46.05676 14.38183 10298 ft 254 kts 148°
2026-04-16 22:42 46.04337 14.39974 10540 ft 276 kts 126°
2026-04-16 22:42 46.03161 14.42314 10772 ft 300 kts 126°
2026-04-16 22:43 46.01880 14.44838 10985 ft 324 kts 126°
2026-04-16 22:43 46.00503 14.47523 11320 ft 340 kts 126°
2026-04-16 22:43 45.99076 14.50295 11965 ft 346 kts 126°
2026-04-16 22:43 45.97632 14.53091 12668 ft 351 kts 126°
2026-04-16 22:44 45.96185 14.55889 13374 ft 355 kts 126°
2026-04-16 22:44 45.94702 14.58753 14065 ft 358 kts 127°
2026-04-16 22:44 45.93202 14.61647 14671 ft 363 kts 127°
2026-04-16 22:44 45.91683 14.64574 15283 ft 366 kts 127°
2026-04-16 22:45 45.90151 14.67519 15898 ft 370 kts 127°
2026-04-16 22:45 45.88603 14.70495 16512 ft 373 kts 127°
2026-04-16 22:45 45.87041 14.73499 17102 ft 377 kts 127°
2026-04-16 22:45 45.85467 14.76531 17703 ft 381 kts 127°
2026-04-16 22:46 45.83876 14.79592 18288 ft 384 kts 127°
2026-04-16 22:46 45.82270 14.82674 18828 ft 388 kts 127°
2026-04-16 22:46 45.80668 14.85749 19341 ft 391 kts 127°
2026-04-16 22:46 45.79031 14.88888 19865 ft 394 kts 127°
2026-04-16 22:47 45.77380 14.92048 20393 ft 397 kts 127°
2026-04-16 22:47 45.75716 14.95223 20916 ft 400 kts 127°
2026-04-16 22:47 45.74032 14.98427 21452 ft 403 kts 127°
2026-04-16 22:47 45.72332 15.01656 21966 ft 407 kts 127°
2026-04-16 22:48 45.70623 15.04903 22481 ft 409 kts 127°
2026-04-16 22:48 45.68900 15.08174 22979 ft 413 kts 127°
2026-04-16 22:48 45.67163 15.11468 23455 ft 416 kts 127°
2026-04-16 22:48 45.65410 15.14791 23899 ft 419 kts 127°
2026-04-16 22:49 45.63668 15.18091 24278 ft 422 kts 127°
2026-04-16 22:49 45.61898 15.21438 24677 ft 424 kts 127°
2026-04-16 22:49 45.60112 15.24802 25057 ft 427 kts 127°
2026-04-16 22:49 45.58306 15.28201 25433 ft 429 kts 127°
2026-04-16 22:50 45.56460 15.31562 25797 ft 431 kts 129°
2026-04-16 22:50 45.54526 15.34846 26160 ft 433 kts 131°
2026-04-16 22:50 45.52524 15.38079 26520 ft 436 kts 132°
2026-04-16 22:50 45.50486 15.41291 26869 ft 438 kts 132°
2026-04-16 22:51 45.48433 15.44514 27216 ft 440 kts 132°
2026-04-16 22:51 45.46373 15.47769 27558 ft 442 kts 132°
2026-04-16 22:51 45.44321 15.51041 27887 ft 444 kts 131°
2026-04-16 22:51 45.42268 15.54342 28211 ft 447 kts 131°
2026-04-16 22:52 45.40208 15.57670 28538 ft 449 kts 131°
2026-04-16 22:52 45.38144 15.61007 28854 ft 451 kts 131°
2026-04-16 22:52 45.36087 15.64326 29156 ft 453 kts 132°
2026-04-16 22:52 45.33992 15.67697 29450 ft 455 kts 132°
2026-04-16 22:53 45.31881 15.71081 29739 ft 457 kts 132°
2026-04-16 22:53 45.29768 15.74457 30021 ft 459 kts 132°
2026-04-16 22:53 45.27641 15.77854 30291 ft 461 kts 133°
2026-04-16 22:53 45.25500 15.81266 30522 ft 463 kts 133°
2026-04-16 22:54 45.23352 15.84682 30742 ft 464 kts 133°
2026-04-16 22:54 45.21198 15.88110 30971 ft 465 kts 132°
2026-04-16 22:54 45.19040 15.91545 31206 ft 466 kts 132°
2026-04-16 22:54 45.16888 15.94966 31506 ft 465 kts 132°
2026-04-16 22:55 45.14731 15.98387 31835 ft 464 kts 132°
2026-04-16 22:55 45.12581 16.01791 32149 ft 462 kts 132°
2026-04-16 22:55 45.10435 16.05185 32469 ft 461 kts 131°
2026-04-16 22:55 45.08324 16.08520 32782 ft 460 kts 131°
2026-04-16 22:56 45.06187 16.11896 33098 ft 459 kts 131°
2026-04-16 22:56 45.04055 16.15258 33408 ft 458 kts 131°
2026-04-16 22:56 45.01926 16.18605 33714 ft 457 kts 131°
2026-04-16 22:56 44.99790 16.21957 34016 ft 457 kts 131°
2026-04-16 22:57 44.97664 16.25289 34285 ft 456 kts 131°
2026-04-16 22:57 44.95533 16.28631 34537 ft 456 kts 131°
2026-04-16 22:57 44.93411 16.31959 34774 ft 456 kts 131°
2026-04-16 22:57 44.91293 16.35283 34997 ft 455 kts 131°
2026-04-16 22:58 44.89195 16.38573 35155 ft 456 kts 131°
2026-04-16 22:58 44.87080 16.41877 35197 ft 452 kts 132°
2026-04-16 22:58 44.82869 16.48435 35195 ft 450 kts 132°
2026-04-16 22:59 44.78666 16.54967 35198 ft 449 kts 132°
2026-04-16 22:59 44.74463 16.61482 35195 ft 448 kts 133°
2026-04-16 23:00 44.70292 16.67935 35196 ft 448 kts 133°
2026-04-16 23:00 44.66096 16.74427 35197 ft 448 kts 133°
2026-04-16 23:01 44.61902 16.80899 35203 ft 447 kts 133°
2026-04-16 23:01 44.57699 16.87349 35203 ft 447 kts 133°
2026-04-16 23:02 44.53514 16.93752 35203 ft 447 kts 133°
2026-04-16 23:02 44.49313 17.00175 35202 ft 447 kts 133°
2026-04-16 23:03 44.45113 17.06598 35201 ft 447 kts 133°
2026-04-16 23:03 44.40911 17.13003 35203 ft 447 kts 133°
2026-04-16 23:04 44.36705 17.19397 35199 ft 446 kts 133°
2026-04-16 23:04 44.33210 17.24703 35199 ft 446 kts 133°
2026-04-16 23:05 44.28993 17.31077 35205 ft 446 kts 134°
2026-04-16 23:05 44.24778 17.37437 35198 ft 446 kts 134°
2026-04-16 23:06 44.20559 17.43789 35193 ft 445 kts 134°
2026-04-16 23:06 44.16350 17.50113 35195 ft 445 kts 134°
2026-04-16 23:07 44.12161 17.56390 35188 ft 445 kts 134°
2026-04-16 23:07 44.07943 17.62703 35180 ft 444 kts 134°
2026-04-16 23:08 44.03730 17.69005 35178 ft 444 kts 134°
2026-04-16 23:08 43.99508 17.75293 35175 ft 444 kts 134°
2026-04-16 23:09 43.95312 17.81526 35169 ft 444 kts 134°
2026-04-16 23:09 43.91085 17.87791 35168 ft 444 kts 134°
2026-04-16 23:10 43.86850 17.94055 35166 ft 444 kts 134°
2026-04-16 23:10 43.82643 18.00264 35169 ft 444 kts 134°
2026-04-16 23:11 43.78413 18.06492 35171 ft 444 kts 134°
2026-04-16 23:11 43.74175 18.12716 35172 ft 444 kts 134°
2026-04-16 23:12 43.69936 18.18934 35173 ft 444 kts 134°
2026-04-16 23:12 43.65724 18.25100 35171 ft 444 kts 134°
2026-04-16 23:13 43.61477 18.31299 34940 ft 445 kts 135°
2026-04-16 23:13 43.59348 18.34403 34697 ft 444 kts 134°
2026-04-16 23:13 43.57224 18.37504 34456 ft 444 kts 135°
2026-04-16 23:14 43.55099 18.40600 34246 ft 443 kts 135°
2026-04-16 23:14 43.52972 18.43691 34181 ft 445 kts 135°
2026-04-16 23:14 43.48711 18.49869 34154 ft 445 kts 135°
2026-04-16 23:15 43.42305 18.59140 34155 ft 445 kts 135°
2026-04-16 23:16 43.38045 18.65271 34153 ft 445 kts 135°
2026-04-16 23:16 43.34016 18.71754 34163 ft 448 kts 123°
2026-04-16 23:17 43.30760 18.79095 34144 ft 450 kts 123°
2026-04-16 23:17 43.27494 18.86430 34165 ft 451 kts 123°
2026-04-16 23:18 43.24228 18.93726 34142 ft 451 kts 123°
2026-04-16 23:18 43.20934 19.01066 34157 ft 452 kts 123°
2026-04-16 23:19 43.17628 19.08407 34153 ft 452 kts 123°
2026-04-16 23:19 43.14319 19.15758 34152 ft 453 kts 123°
2026-04-16 23:19 43.12660 19.19434 34026 ft 454 kts 123°
2026-04-16 23:20 43.10998 19.23107 33743 ft 452 kts 123°
2026-04-16 23:20 43.09364 19.26711 33469 ft 449 kts 123°
2026-04-16 23:20 43.07723 19.30333 33199 ft 447 kts 123°
2026-04-16 23:20 43.06089 19.33939 32925 ft 444 kts 123°
2026-04-16 23:21 43.04461 19.37521 32656 ft 442 kts 123°
2026-04-16 23:21 43.02841 19.41086 32393 ft 440 kts 123°
2026-04-16 23:21 43.01228 19.44634 32131 ft 438 kts 123°
2026-04-16 23:21 42.99623 19.48156 31871 ft 435 kts 123°
2026-04-16 23:22 42.98029 19.51653 31599 ft 433 kts 124°
2026-04-16 23:22 42.96436 19.55144 31372 ft 431 kts 124°
2026-04-16 23:22 42.94849 19.58615 31111 ft 430 kts 124°
2026-04-16 23:22 42.93270 19.62062 30857 ft 428 kts 124°
2026-04-16 23:23 42.91690 19.65500 30612 ft 426 kts 124°
2026-04-16 23:23 42.90113 19.68928 30362 ft 425 kts 124°
2026-04-16 23:23 42.88537 19.72353 30102 ft 424 kts 124°
2026-04-16 23:23 42.86994 19.75706 29815 ft 422 kts 124°
2026-04-16 23:24 42.85432 19.79094 29537 ft 420 kts 124°
2026-04-16 23:24 42.83881 19.82458 29264 ft 418 kts 123°
2026-04-16 23:24 42.82337 19.85809 28980 ft 416 kts 123°
2026-04-16 23:24 42.80798 19.89142 28707 ft 414 kts 124°
2026-04-16 23:25 42.79264 19.92459 28435 ft 412 kts 124°
2026-04-16 23:25 42.77736 19.95757 28163 ft 410 kts 124°
2026-04-16 23:25 42.76233 19.98991 27904 ft 408 kts 123°
2026-04-16 23:25 42.74899 20.02381 27633 ft 407 kts 115°
2026-04-16 23:26 42.73948 20.06016 27372 ft 406 kts 107°
2026-04-16 23:26 42.73193 20.09712 27116 ft 404 kts 107°
2026-04-16 23:26 42.72433 20.13398 26857 ft 402 kts 107°
2026-04-16 23:26 42.71676 20.17054 26599 ft 401 kts 107°
2026-04-16 23:27 42.70919 20.20700 26346 ft 399 kts 107°
2026-04-16 23:27 42.70166 20.24320 26086 ft 397 kts 107°
2026-04-16 23:27 42.69425 20.27879 25848 ft 395 kts 107°
2026-04-16 23:27 42.68674 20.31472 25601 ft 393 kts 107°
2026-04-16 23:28 42.67927 20.35038 25355 ft 391 kts 107°
2026-04-16 23:28 42.67181 20.38590 25110 ft 390 kts 107°
2026-04-16 23:28 42.66439 20.42123 24870 ft 388 kts 107°
2026-04-16 23:28 42.65701 20.45634 24633 ft 386 kts 107°
2026-04-16 23:29 42.64966 20.49121 24358 ft 381 kts 107°
2026-04-16 23:29 42.64238 20.52569 23925 ft 378 kts 107°
2026-04-16 23:29 42.63514 20.55992 23445 ft 376 kts 107°
2026-04-16 23:29 42.62793 20.59393 22974 ft 373 kts 107°
2026-04-16 23:30 42.62077 20.62763 22524 ft 369 kts 107°
2026-04-16 23:30 42.61370 20.66101 22068 ft 366 kts 107°
2026-04-16 23:30 42.60665 20.69420 21619 ft 364 kts 107°
2026-04-16 23:30 42.59963 20.72710 21161 ft 361 kts 106°
2026-04-16 23:31 42.59273 20.75934 20716 ft 359 kts 106°
2026-04-16 23:31 42.58577 20.79184 20270 ft 358 kts 106°
2026-04-16 23:31 42.57884 20.82417 19810 ft 356 kts 106°
2026-04-16 23:31 42.57191 20.85640 19363 ft 355 kts 106°
2026-04-16 23:32 42.56500 20.88858 18922 ft 354 kts 106°
2026-04-16 23:32 42.55811 20.92061 18473 ft 353 kts 106°
2026-04-16 23:32 42.55121 20.95259 17983 ft 352 kts 106°
2026-04-16 23:32 42.54435 20.98435 17545 ft 349 kts 106°
2026-04-16 23:33 42.53754 21.01585 17112 ft 347 kts 106°
2026-04-16 23:33 42.53077 21.04724 16679 ft 345 kts 106°
2026-04-16 23:33 42.52410 21.07801 16260 ft 343 kts 106°
2026-04-16 23:33 42.51728 21.10937 15830 ft 342 kts 106°
2026-04-16 23:34 42.51065 21.13978 15409 ft 340 kts 106°
2026-04-16 23:34 42.50395 21.17055 14985 ft 339 kts 106°
2026-04-16 23:34 42.49726 21.20119 14597 ft 337 kts 106°
2026-04-16 23:34 42.48954 21.23054 14476 ft 326 kts 117°
2026-04-16 23:35 42.47724 21.25566 14346 ft 316 kts 131°
2026-04-16 23:35 42.46111 21.27549 14047 ft 310 kts 143°
2026-04-16 23:35 42.44394 21.29296 13365 ft 308 kts 143°
2026-04-16 23:35 42.42679 21.31027 12703 ft 305 kts 143°
2026-04-16 23:36 42.40985 21.32736 12052 ft 301 kts 142°
2026-04-16 23:36 42.39313 21.34426 11494 ft 295 kts 142°
2026-04-16 23:36 42.37660 21.35900 11278 ft 278 kts 157°
2026-04-16 23:36 42.35808 21.36358 10976 ft 268 kts 185°
2026-04-16 23:37 42.34001 21.35658 10696 ft 275 kts 211°
2026-04-16 23:37 42.32629 21.33953 10262 ft 271 kts 233°
2026-04-16 23:37 42.31502 21.31911 9801 ft 271 kts 233°
2026-04-16 23:37 42.30364 21.29857 9333 ft 274 kts 232°
2026-04-16 23:38 42.29424 21.27627 8966 ft 273 kts 251°
2026-04-16 23:38 42.29191 21.25098 8567 ft 271 kts 276°
2026-04-16 23:38 42.29711 21.22667 8144 ft 269 kts 300°
2026-04-16 23:38 42.30825 21.20660 7731 ft 269 kts 312°
2026-04-16 23:39 42.32046 21.18786 7542 ft 260 kts 313°
2026-04-16 23:39 42.33215 21.17006 7221 ft 253 kts 313°
2026-04-16 23:39 42.34387 21.15227 6690 ft 252 kts 313°
2026-04-16 23:39 42.35550 21.13456 6161 ft 250 kts 313°
2026-04-16 23:40 42.36712 21.11685 5788 ft 251 kts 313°
2026-04-16 23:40 42.37862 21.09924 5467 ft 250 kts 313°
2026-04-16 23:40 42.39015 21.08161 5194 ft 247 kts 314°
2026-04-16 23:40 42.40154 21.06508 5014 ft 231 kts 323°
2026-04-16 23:41 42.41490 21.05436 4904 ft 218 kts 343°
2026-04-16 23:41 42.42908 21.05039 4716 ft 206 kts 358°
2026-04-16 23:41 42.44315 21.04898 4445 ft 198 kts 358°
2026-04-16 23:41 42.45648 21.04767 4154 ft 185 kts 358°
2026-04-16 23:42 42.46889 21.04641 3877 ft 171 kts 358°
2026-04-16 23:42 42.48008 21.04531 3670 ft 154 kts 358°
2026-04-16 23:42 42.49059 21.04421 3384 ft 148 kts 358°
2026-04-16 23:42 42.50055 21.04320 3131 ft 144 kts 356°
2026-04-16 23:43 42.51060 21.04223 2887 ft 143 kts 356°
2026-04-16 23:43 42.52036 21.04124 2697 ft 142 kts 356°
2026-04-16 23:43 42.53022 21.04022 2478 ft 142 kts 356°
2026-04-16 23:43 42.54003 21.03921 2230 ft 141 kts 355°
2026-04-16 23:44 42.54977 21.03818 1965 ft 139 kts 355°
2026-04-16 23:44 42.55933 21.03722 1812 ft 132 kts 356°
2026-04-16 23:44 42.56702 21.03651 1781 ft 74 kts 355°
2026-04-16 23:44 42.57031 21.03611 1786 ft 39 kts 356°
2026-04-16 23:45 42.57281 21.03587 1788 ft 35 kts 356°
2026-04-16 23:45 42.57437 21.03571 1789 ft 33 kts 355°
2026-04-16 23:45 42.57666 21.03549 1785 ft 34 kts 356°
2026-04-16 23:45 42.57860 21.03467 1786 ft 27 kts 332°
2026-04-16 23:46 42.57965 21.03371 1788 ft 8 kts 326°
2026-04-16 23:46 42.58002 21.03334 1790 ft 3 kts 315°
2026-04-16 23:46 42.58008 21.03325 1790 ft 3 kts 309°
2026-04-16 23:46 42.57949 21.03278 1788 ft 17 kts 174°
2026-04-16 23:47 42.57827 21.03289 1787 ft 18 kts 175°
2026-04-16 23:47 42.57746 21.03269 1786 ft 10 kts 239°
2026-04-16 23:47 42.57708 21.03206 1787 ft 8 kts 195°
2026-04-16 23:47 42.57651 21.03208 1786 ft 9 kts 176°
2026-04-16 23:48 42.57580 21.03215 1787 ft 10 kts 176°
2026-04-16 23:48 42.57543 21.03170 1786 ft 7 kts 263°
2026-04-16 23:48 42.57543 21.03136 1787 ft 1 kts 264°
2026-04-16 23:48 42.57543 21.03135 1787 ft 0 kts 264°
2026-04-16 23:49 42.57543 21.03134 1787 ft 0 kts 264°